PKTCX EYVI-EYVI

Flight info

Callsign PKTCX
Flight time 0h 34m
Altitude 1500
Route CIRCUITS
Aircraft TBM8/L-SDFGW/EB1

Departure

Time 2026-05-05 12:17
Airport Vilnius International Airport (EYVI)

Arrival

Time 2026-05-05 12:51
Airport Vilnius International Airport (EYVI)
Time Latitude Longitude Altitude Speed Heading
2026-05-05 12:03 54.64273 25.28544 639 ft 0 kts 356°
2026-05-05 12:13 54.64274 25.28544 639 ft 2 kts 356°
2026-05-05 12:13 54.64314 25.28573 641 ft 4 kts 67°
2026-05-05 12:13 54.64316 25.28588 641 ft 0 kts 83°
2026-05-05 12:14 54.64316 25.28602 642 ft 10 kts 85°
2026-05-05 12:14 54.64234 25.28677 643 ft 15 kts 173°
2026-05-05 12:14 54.64083 25.28700 640 ft 32 kts 175°
2026-05-05 12:14 54.63925 25.28623 632 ft 16 kts 204°
2026-05-05 12:15 54.63845 25.28568 626 ft 16 kts 198°
2026-05-05 12:15 54.63666 25.28444 615 ft 39 kts 203°
2026-05-05 12:15 54.63461 25.28304 605 ft 27 kts 201°
2026-05-05 12:15 54.63279 25.28177 606 ft 31 kts 204°
2026-05-05 12:16 54.63093 25.28047 602 ft 24 kts 201°
2026-05-05 12:16 54.62988 25.28067 598 ft 14 kts 114°
2026-05-05 12:16 54.62960 25.28211 596 ft 15 kts 86°
2026-05-05 12:16 54.63012 25.28298 597 ft 11 kts 25°
2026-05-05 12:17 54.63260 25.28462 602 ft 68 kts 17°
2026-05-05 12:17 54.63863 25.28887 632 ft 117 kts 22°
2026-05-05 12:17 54.64633 25.29464 951 ft 126 kts 16°
2026-05-05 12:17 54.65471 25.29973 1329 ft 136 kts 11°
2026-05-05 12:18 54.66500 25.30465 1331 ft 164 kts 12°
2026-05-05 12:18 54.67580 25.31094 1336 ft 165 kts 24°
2026-05-05 12:18 54.68433 25.32492 1316 ft 172 kts 58°
2026-05-05 12:18 54.68613 25.34474 1308 ft 169 kts 107°
2026-05-05 12:19 54.67983 25.36050 1338 ft 158 kts 141°
2026-05-05 12:19 54.67056 25.36882 1324 ft 141 kts 177°
2026-05-05 12:19 54.66152 25.36918 1322 ft 121 kts 185°
2026-05-05 12:19 54.65320 25.36946 1315 ft 120 kts 192°
2026-05-05 12:20 54.64539 25.36514 1313 ft 117 kts 203°
2026-05-05 12:20 54.64039 25.36222 1318 ft 113 kts 203°
2026-05-05 12:20 54.63033 25.35706 1309 ft 115 kts 202°
2026-05-05 12:20 54.62541 25.35431 1330 ft 112 kts 202°
2026-05-05 12:21 54.61815 25.35018 1332 ft 111 kts 203°
2026-05-05 12:21 54.60815 25.34490 1327 ft 112 kts 202°
2026-05-05 12:21 54.60324 25.34225 1324 ft 113 kts 202°
2026-05-05 12:21 54.59575 25.33822 1431 ft 113 kts 202°
2026-05-05 12:22 54.58807 25.33430 1505 ft 118 kts 202°
2026-05-05 12:22 54.57988 25.32953 1507 ft 127 kts 206°
2026-05-05 12:22 54.57140 25.32495 1511 ft 128 kts 203°
2026-05-05 12:22 54.56307 25.31989 1504 ft 124 kts 216°
2026-05-05 12:23 54.55896 25.30792 1497 ft 123 kts 274°
2026-05-05 12:23 54.56178 25.29417 1493 ft 124 kts 305°
2026-05-05 12:23 54.56882 25.28514 1516 ft 130 kts 326°
2026-05-05 12:23 54.57726 25.27855 1497 ft 135 kts 332°
2026-05-05 12:24 54.58498 25.26974 1512 ft 132 kts 317°
2026-05-05 12:24 54.59239 25.26040 1487 ft 131 kts 320°
2026-05-05 12:24 54.60195 25.26045 1104 ft 164 kts 34°
2026-05-05 12:24 54.61114 25.27022 1004 ft 148 kts 12°
2026-05-05 12:25 54.61998 25.27627 720 ft 126 kts 19°
2026-05-05 12:25 54.62857 25.28216 881 ft 136 kts 16°
2026-05-05 12:25 54.63740 25.28854 1132 ft 134 kts 20°
2026-05-05 12:25 54.64536 25.29604 1257 ft 124 kts 27°
2026-05-05 12:26 54.65217 25.30323 1273 ft 107 kts 27°
2026-05-05 12:26 54.65866 25.31101 1347 ft 122 kts 35°
2026-05-05 12:26 54.66471 25.32140 1558 ft 127 kts 63°
2026-05-05 12:26 54.66393 25.33665 1674 ft 137 kts 123°
2026-05-05 12:27 54.65570 25.34345 1462 ft 141 kts 195°
2026-05-05 12:27 54.64667 25.33736 1293 ft 139 kts 202°
2026-05-05 12:27 54.63790 25.33252 1370 ft 127 kts 213°
2026-05-05 12:27 54.62992 25.32755 1491 ft 128 kts 186°
2026-05-05 12:28 54.62093 25.32795 1492 ft 129 kts 185°
2026-05-05 12:28 54.61194 25.32712 1488 ft 126 kts 203°
2026-05-05 12:28 54.60429 25.32029 1502 ft 128 kts 211°
2026-05-05 12:28 54.59644 25.31273 1504 ft 131 kts 213°
2026-05-05 12:29 54.58847 25.30563 1511 ft 128 kts 212°
2026-05-05 12:29 54.58039 25.29888 1509 ft 130 kts 206°
2026-05-05 12:29 54.57186 25.29326 1499 ft 130 kts 205°
2026-05-05 12:29 54.56355 25.28766 1508 ft 128 kts 206°
2026-05-05 12:30 54.55511 25.28222 1506 ft 130 kts 204°
2026-05-05 12:30 54.54651 25.27664 1494 ft 133 kts 206°
2026-05-05 12:30 54.53809 25.27107 1491 ft 128 kts 204°
2026-05-05 12:30 54.52990 25.26556 1501 ft 125 kts 204°
2026-05-05 12:31 54.52326 25.25652 1494 ft 126 kts 243°
2026-05-05 12:31 54.52312 25.24183 1489 ft 123 kts 283°
2026-05-05 12:31 54.52791 25.22952 1487 ft 125 kts 308°
2026-05-05 12:31 54.53583 25.22321 1483 ft 133 kts 349°
2026-05-05 12:32 54.54498 25.22586 1491 ft 136 kts 13°
2026-05-05 12:32 54.55403 25.23093 1492 ft 138 kts 14°
2026-05-05 12:32 54.56316 25.23677 1505 ft 143 kts 15°
2026-05-05 12:32 54.57244 25.24298 1515 ft 143 kts 17°
2026-05-05 12:33 54.58058 25.24906 1497 ft 105 kts 16°
2026-05-05 12:33 54.58716 25.25327 1409 ft 102 kts 13°
2026-05-05 12:33 54.59357 25.25766 1279 ft 97 kts 13°
2026-05-05 12:33 54.59993 25.26185 1145 ft 101 kts 19°
2026-05-05 12:34 54.60634 25.26675 1006 ft 99 kts 19°
2026-05-05 12:34 54.61320 25.27096 873 ft 111 kts 15°
2026-05-05 12:34 54.62020 25.27613 722 ft 104 kts 21°
2026-05-05 12:34 54.62653 25.28047 605 ft 93 kts 22°
2026-05-05 12:35 54.63229 25.28441 602 ft 94 kts 24°
2026-05-05 12:35 54.63978 25.28968 654 ft 134 kts 19°
2026-05-05 12:35 54.64820 25.29497 1119 ft 130 kts
2026-05-05 12:35 54.65804 25.29878 1385 ft 158 kts 10°
2026-05-05 12:36 54.66931 25.30532 1513 ft 186 kts 15°
2026-05-05 12:36 54.68060 25.31816 1491 ft 209 kts 48°
2026-05-05 12:36 54.68603 25.34113 1488 ft 214 kts 85°
2026-05-05 12:36 54.68278 25.36636 1488 ft 215 kts 121°
2026-05-05 12:37 54.67240 25.38319 1494 ft 207 kts 157°
2026-05-05 12:37 54.65858 25.38663 1504 ft 200 kts 190°
2026-05-05 12:37 54.64514 25.38088 1511 ft 200 kts 200°
2026-05-05 12:37 54.63185 25.37353 1504 ft 202 kts 201°
2026-05-05 12:38 54.61893 25.36613 1490 ft 182 kts 201°
2026-05-05 12:38 54.60753 25.35978 1486 ft 165 kts 201°
2026-05-05 12:38 54.59695 25.35379 1487 ft 157 kts 202°
2026-05-05 12:38 54.58656 25.34857 1490 ft 154 kts 199°
2026-05-05 12:39 54.57631 25.34310 1490 ft 155 kts 202°
2026-05-05 12:39 54.56643 25.33755 1492 ft 139 kts 203°
2026-05-05 12:39 54.55796 25.33350 1481 ft 115 kts 201°
2026-05-05 12:39 54.55026 25.33038 1481 ft 117 kts 199°
2026-05-05 12:40 54.54346 25.32309 1486 ft 124 kts 241°
2026-05-05 12:40 54.54333 25.30837 1480 ft 131 kts 295°
2026-05-05 12:40 54.55091 25.30007 1494 ft 140 kts 350°
2026-05-05 12:40 54.56069 25.30243 1493 ft 144 kts 11°
2026-05-05 12:41 54.56912 25.31232 1488 ft 149 kts 34°
2026-05-05 12:41 54.57759 25.32255 1503 ft 151 kts 29°
2026-05-05 12:41 54.58645 25.33293 1504 ft 156 kts 30°
2026-05-05 12:41 54.59544 25.34296 1494 ft 149 kts 28°
2026-05-05 12:42 54.60346 25.35264 1485 ft 135 kts 30°
2026-05-05 12:42 54.61110 25.36160 1480 ft 130 kts 29°
2026-05-05 12:42 54.61880 25.36909 1477 ft 121 kts 20°
2026-05-05 12:42 54.62626 25.37564 1486 ft 120 kts 22°
2026-05-05 12:43 54.63377 25.38195 1481 ft 121 kts 20°
2026-05-05 12:43 54.64118 25.38822 1482 ft 119 kts 19°
2026-05-05 12:43 54.64842 25.39498 1484 ft 118 kts 21°
2026-05-05 12:43 54.65585 25.40167 1514 ft 125 kts 21°
2026-05-05 12:44 54.66351 25.40825 1508 ft 119 kts 20°
2026-05-05 12:44 54.67122 25.41421 1500 ft 125 kts 14°
2026-05-05 12:44 54.67913 25.42014 1492 ft 123 kts 17°
2026-05-05 12:44 54.68660 25.42576 1490 ft 115 kts 17°
2026-05-05 12:45 54.69402 25.43135 1480 ft 115 kts 17°
2026-05-05 12:45 54.70146 25.43679 1483 ft 118 kts 18°
2026-05-05 12:45 54.70904 25.44089 1480 ft 110 kts 355°
2026-05-05 12:45 54.71496 25.43463 1494 ft 98 kts 299°
2026-05-05 12:46 54.71972 25.42597 1491 ft 101 kts 307°
2026-05-05 12:46 54.72476 25.41753 1483 ft 101 kts 306°
2026-05-05 12:46 54.72769 25.40726 1502 ft 94 kts 275°
2026-05-05 12:46 54.72962 25.39598 1487 ft 101 kts 281°
2026-05-05 12:47 54.73118 25.38454 1492 ft 94 kts 268°
2026-05-05 12:47 54.73111 25.37360 1484 ft 89 kts 266°
2026-05-05 12:47 54.73124 25.36319 1488 ft 85 kts 262°
2026-05-05 12:47 54.72730 25.35542 1492 ft 94 kts 217°
2026-05-05 12:48 54.72190 25.34867 1509 ft 100 kts 203°
2026-05-05 12:48 54.71552 25.34332 1501 ft 100 kts 208°
2026-05-05 12:48 54.70899 25.33861 1486 ft 99 kts 208°
2026-05-05 12:48 54.70263 25.33386 1485 ft 99 kts 209°
2026-05-05 12:49 54.69620 25.32935 1488 ft 100 kts 208°
2026-05-05 12:49 54.68967 25.32478 1493 ft 102 kts 204°
2026-05-05 12:49 54.68282 25.32012 1490 ft 109 kts 205°
2026-05-05 12:49 54.67577 25.31479 1359 ft 112 kts 205°
2026-05-05 12:50 54.66865 25.30968 1209 ft 101 kts 208°
2026-05-05 12:50 54.66296 25.30559 1071 ft 80 kts 206°
2026-05-05 12:50 54.65693 25.30178 977 ft 100 kts 204°
2026-05-05 12:50 54.65107 25.29754 845 ft 78 kts 204°
2026-05-05 12:51 54.64641 25.29434 733 ft 70 kts 203°
2026-05-05 12:51 54.64147 25.29092 662 ft 79 kts 206°
2026-05-05 12:51 54.63692 25.28781 623 ft 62 kts 208°
2026-05-05 12:51 54.63452 25.28597 611 ft 12 kts 225°
2026-05-05 12:52 54.63434 25.28498 613 ft 6 kts 284°
2026-05-05 12:52 54.63440 25.28463 611 ft 0 kts 295°
2026-05-05 12:52 54.63454 25.28430 607 ft 0 kts 318°
2026-05-05 12:52 54.63483 25.28406 605 ft 17 kts 341°
2026-05-05 12:53 54.63551 25.28385 615 ft 9 kts 359°
2026-05-05 12:53 54.63622 25.28416 612 ft 12 kts 24°
2026-05-05 12:53 54.63681 25.28457 616 ft 9 kts 21°
2026-05-05 12:53 54.63728 25.28489 619 ft 7 kts 22°
2026-05-05 12:54 54.64162 25.28689 642 ft 36 kts 356°
2026-05-05 12:54 54.64509 25.28617 646 ft 38 kts 354°
2026-05-05 12:54 54.64538 25.28578 645 ft 1 kts 212°
2026-05-05 12:55 54.64525 25.28565 645 ft 13 kts 208°
2026-05-05 12:55 54.64517 25.28503 642 ft 3 kts 347°
2026-05-05 12:55 54.64531 25.28498 642 ft 3 kts 348°
2026-05-05 12:55 54.64540 25.28494 642 ft 0 kts 272°
2026-05-05 12:56 54.64536 25.28497 642 ft 0 kts 63°
2026-05-05 12:56 54.64536 25.28494 642 ft 0 kts 342°
2026-05-05 12:58 54.64537 25.28491 642 ft 0 kts 340°
2026-05-05 12:58 54.64537 25.28495 642 ft 0 kts 341°
2026-05-05 12:59 54.64537 25.28494 642 ft 0 kts 348°